Rutland, VT

3:19 AM EDT on August 18, 2017 (GMT -0400)
Rutland State

Weather History for KRUT - June, 2012

Change the Weather History Date:

Tuesday, June 26, 2012

  Actual Average Record
Temperature  
Mean Temperature 55 °F -  
Max Temperature 57 °F - 94 °F (1952)
Min Temperature 52 °F - 37 °F (1979)
Degree Days  
Heating Degree Days 10    
Month to date heating degree days 92  
Since 1 June heating degree days 92  
Since 1 July heating degree days 6074  
Cooling Degree Days 0    
Month to date cooling degree days 53  
Year to date cooling degree days 95  
Since 1 June cooling degree days 53  
Growing Degree Days 4 (Base 50)    
Moisture  
Dew Point 46 °F    
Average Humidity 74    
Maximum Humidity 77    
Minimum Humidity 71    
Precipitation  
Precipitation 0.12 in - 2.91 in (2006)
Month to date precipitation 1.37  
Year to date precipitation 9.69  
Sea Level Pressure  
Sea Level Pressure 29.68 in    
Wind  
Wind Speed 4 mph (NNW)    
Max Wind Speed 7 mph    
Max Gust Speed -    
Visibility 9 miles    
Events      
T = Trace of Precipitation, MM = Missing Value Source: NWS Daily Summary

Daily Weather History Graph

Daily Weather History Graph

Search for Another Location

Airport or City:

Trip Planner

Search our weather history database for the weather conditions in past years. The results will help you decide how hot, cold, wet, or windy it might be!

Date:

Astronomy

Jun. 26, 2012 Rise Set
Actual Time 5:12 AM EDT 8:37 PM EDT
Civil Twilight 4:36 AM EDT 9:12 PM EDT
Nautical Twilight 3:49 AM EDT 9:59 PM EDT
Astronomical Twilight 2:50 AM EDT 10:58 PM EDT
Moon 12:39 PM EDT (6/26) No Moon Set
Length of Visible Light 16h 36m
Length of Day
15h 24m
Waxing Crescent, 45% of the Moon is Illuminated
Jun 26
Waxing Crescent
Jun 26
First Quarter
Jul 3
Full
Jul 10
Last Quarter
Jul 19
New

Hourly Weather History & Observations

Time (EDT) Temp. Dew Point Humidity Pressure Visibility Wind Dir Wind Speed Gust Speed Precip Events Conditions
12:35 AM 53.6 °F 44.6 °F 72% 29.71 in 10.0 mi Calm Calm - N/A   Overcast
12:55 AM 53.6 °F 44.6 °F 72% 29.70 in 10.0 mi NW 3.5 mph - N/A   Overcast
1:15 AM 53.6 °F 44.6 °F 72% 29.71 in 10.0 mi Calm Calm - N/A   Overcast
1:35 AM 53.6 °F 44.6 °F 72% 29.71 in 10.0 mi Calm Calm - N/A   Overcast
1:55 AM 53.6 °F 44.6 °F 72% 29.70 in 10.0 mi Calm Calm - N/A   Overcast
2:15 AM 53.6 °F 44.6 °F 72% 29.70 in 10.0 mi NW 3.5 mph - N/A   Overcast
2:35 AM 53.6 °F 44.6 °F 72% 29.69 in 10.0 mi Calm Calm - N/A   Overcast
2:55 AM 53.6 °F 46.4 °F 77% 29.69 in 10.0 mi Calm Calm - N/A   Overcast
3:15 AM 53.6 °F 44.6 °F 72% 29.68 in 10.0 mi NW 3.5 mph - N/A   Overcast
3:55 AM 51.8 °F 44.6 °F 76% 29.69 in 10.0 mi Calm Calm - N/A   Scattered Clouds
4:15 AM 51.8 °F 44.6 °F 76% 29.68 in 10.0 mi North 3.5 mph - N/A   Mostly Cloudy
4:35 AM 51.8 °F 44.6 °F 76% 29.68 in 10.0 mi North 3.5 mph - N/A   Overcast
4:55 AM 51.8 °F 44.6 °F 76% 29.68 in 10.0 mi North 3.5 mph - N/A   Overcast
5:15 AM 51.8 °F 44.6 °F 76% 29.68 in 10.0 mi Calm Calm - N/A   Overcast
5:35 AM 51.8 °F 44.6 °F 76% 29.69 in 10.0 mi NNW 3.5 mph - N/A   Overcast
5:55 AM 51.8 °F 44.6 °F 76% 29.69 in 10.0 mi NNW 4.6 mph - N/A   Overcast
6:35 AM 51.8 °F 44.6 °F 76% 29.69 in 10.0 mi NNW 3.5 mph - N/A   Overcast
6:55 AM 51.8 °F 44.6 °F 76% 29.68 in 10.0 mi NW 4.6 mph - N/A   Overcast
7:15 AM 51.8 °F 44.6 °F 76% 29.69 in 10.0 mi Calm Calm - N/A   Overcast
7:35 AM 53.6 °F 44.6 °F 72% 29.69 in 9.0 mi NNW 4.6 mph - N/A   Overcast
7:55 AM 53.6 °F 44.6 °F 72% 29.69 in 6.0 mi NNW 4.6 mph - N/A   Overcast
8:15 AM 51.8 °F 44.6 °F 76% 29.70 in 6.0 mi North 3.5 mph - N/A   Overcast
8:35 AM 51.8 °F 44.6 °F 76% 29.70 in 1.8 mi NNW 3.5 mph - N/A   Overcast
8:55 AM 51.8 °F 44.6 °F 76% 29.69 in 1.5 mi NW 3.5 mph - N/A   Overcast
9:15 AM 51.8 °F 44.6 °F 76% 29.70 in 2.0 mi NW 4.6 mph - N/A   Overcast
9:35 AM 53.6 °F 46.4 °F 77% 29.69 in 3.0 mi NNW 4.6 mph - N/A   Overcast
9:55 AM 53.6 °F 44.6 °F 72% 29.69 in 5.0 mi WNW 4.6 mph - N/A   Overcast
10:35 AM 53.6 °F 46.4 °F 77% 29.69 in 10.0 mi NNW 3.5 mph - 0.02 in   Overcast
10:55 AM 53.6 °F 46.4 °F 77% 29.69 in 10.0 mi WNW 5.8 mph - 0.02 in   Overcast
11:15 AM 55.4 °F 46.4 °F 72% 29.68 in 5.0 mi NNW 6.9 mph - N/A   Overcast
11:55 AM 55.4 °F 48.2 °F 77% 29.68 in 6.0 mi NW 5.8 mph - N/A   Overcast
12:15 PM 55.4 °F 48.2 °F 77% 29.68 in 2.5 mi NNW 5.8 mph - N/A   Overcast
12:35 PM 55.4 °F 48.2 °F 77% 29.68 in 4.0 mi NNW 9.2 mph - N/A   Overcast
12:55 PM 55.4 °F 48.2 °F 77% 29.68 in 10.0 mi NNW 6.9 mph - N/A   Mostly Cloudy
1:15 PM 57.2 °F 48.2 °F 72% 29.68 in 10.0 mi NNW 9.2 mph - 0.01 in   Overcast
1:35 PM 57.2 °F 48.2 °F 72% 29.68 in 8.0 mi North 6.9 mph - 0.02 in   Mostly Cloudy
1:55 PM 57.2 °F 48.2 °F 72% 29.68 in 10.0 mi North 4.6 mph - 0.03 in   Overcast
2:15 PM 57.2 °F 48.2 °F 72% 29.67 in 10.0 mi North 5.8 mph - N/A   Overcast
2:35 PM 57.2 °F 48.2 °F 72% 29.66 in 10.0 mi NNW 6.9 mph - N/A   Overcast
2:55 PM 57.2 °F 48.2 °F 72% 29.66 in 10.0 mi North 6.9 mph - 0.01 in   Overcast
3:15 PM 57.2 °F 48.2 °F 72% 29.66 in 10.0 mi NNW 4.6 mph - 0.02 in   Overcast
3:35 PM 57.2 °F 48.2 °F 72% 29.66 in 10.0 mi North 5.8 mph - 0.03 in   Mostly Cloudy
3:55 PM 57.2 °F 48.2 °F 72% 29.66 in 10.0 mi North 3.5 mph - 0.03 in   Overcast
4:15 PM 57.2 °F 48.2 °F 72% 29.66 in 3.0 mi North 4.6 mph - 0.02 in   Overcast
5:15 PM 55.4 °F 48.2 °F 77% 29.67 in 9.0 mi NNW 4.6 mph - N/A   Mostly Cloudy
5:55 PM 55.4 °F 48.2 °F 77% 29.68 in 9.0 mi North 5.8 mph - N/A   Overcast
6:15 PM 55.4 °F 48.2 °F 77% 29.68 in 10.0 mi NNW 5.8 mph - N/A   Overcast
6:35 PM 55.4 °F 48.2 °F 77% 29.68 in 10.0 mi NW 3.5 mph - N/A   Overcast
6:55 PM 55.4 °F 48.2 °F 77% 29.68 in 8.0 mi NW 4.6 mph - N/A   Overcast
7:15 PM 55.4 °F 48.2 °F 77% 29.68 in 10.0 mi NNW 3.5 mph - N/A   Mostly Cloudy
7:35 PM 55.4 °F 48.2 °F 77% 29.68 in 10.0 mi NNW 3.5 mph - N/A   Overcast
7:55 PM 55.4 °F 48.2 °F 77% 29.67 in 10.0 mi Calm Calm - N/A   Overcast
8:15 PM 55.4 °F 48.2 °F 77% 29.67 in 10.0 mi North 3.5 mph - N/A   Overcast
8:55 PM 55.4 °F 48.2 °F 77% 29.66 in 10.0 mi Calm Calm - N/A   Overcast
9:15 PM 55.4 °F 48.2 °F 77% 29.66 in 10.0 mi NNE 3.5 mph - N/A   Overcast
9:35 PM 55.4 °F 48.2 °F 77% 29.66 in 10.0 mi NNE 5.8 mph - N/A   Overcast
9:55 PM 55.4 °F 48.2 °F 77% 29.66 in 10.0 mi North 3.5 mph - N/A   Overcast
10:15 PM 55.4 °F 48.2 °F 77% 29.66 in 10.0 mi WNW 4.6 mph - N/A   Overcast
10:35 PM 55.4 °F 46.4 °F 72% 29.65 in 10.0 mi NW 6.9 mph - N/A   Overcast
10:55 PM 55.4 °F 46.4 °F 72% 29.65 in 10.0 mi WNW 5.8 mph - N/A   Overcast
11:35 PM 55.4 °F 46.4 °F 72% 29.65 in 10.0 mi NNW 5.8 mph - 0.01 in   Overcast
11:55 PM 55.4 °F 46.4 °F 72% 29.64 in 10.0 mi NW 3.5 mph - 0.02 in   Overcast